Location: Sternwarte ZA, Rosenfeld-Brittheim
(48.2889°N, 8.6789°E)
Time: 08:06:18
(UTC+02:00)

ISS - Pass Details

Date: 19 May 2021
Orbit: 417 x 422 km, 51.6° (Epoch: 18 June)

Event Time Altitude Azimuth Distance (km) Brightness Sun altitude
Rises 23:41:19 0° 279° (W) 2,367 0.5 -18.1°
Reaches altitude 10° 23:43:28 10° 286° (WNW) 1,504 -0.4 -18.3°
Maximum altitude 23:46:44 45° 1° (N) 587 -2.6 -18.5°
Enters shadow 23:49:58 10° 75° (ENE) 1,494 -1.0 -18.7°
